[[{"header":{"parameterUnit":"m.s-1","parameterCategory":1,"la1":30.2991,"la2":30.254,"lo1":-89.0895,"lo2":-89.0444,"dy":0.0017,"dx":0.0017,"nx":28,"ny":28,"refTime":"2024-02-09T09:00:00:Z","depth":0,"parameterNumber":2,"parameterNumberName":"U-component_of_WINDS"},"data":[0,0,0,0,0,0,0,0,0,0,0,0,0,0,0,0,0,0,0,0,0,0,0,0,0,0,0,0,0,0,0,0,0,0,0,0,0,0,0,0,0,0,0,0,0,0,0,0,0,0,0,0,0,0,0,0,0,0,-1.7598,-1.7598,0,-1.7562,-1.7562,-1.7562,-1.7506,-1.7505,-1.7504,-1.7503,-1.7466,-1.7466,-1.7466,0,0,0,0,0,0,0,0,0,0,0,0,0,-1.7618,-1.7618,-1.7598,-1.7598,-1.7597,-1.7563,-1.7562,-1.7562,-1.7506,-1.7505,-1.7504,-1.7503,-1.7466,-1.7466,-1.7466,0,0,0,0,0,0,0,0,0,0,0,0,0,-1.7599,-1.7618,-1.7598,-1.7565,-1.7562,-1.7563,-1.7562,-1.7561,-1.7506,-1.7505,-1.7503,-1.7502,-1.7466,-1.7466,-1.7466,-1.7495,0,0,-1.7465,-1.7465,0,0,0,0,0,0,0,0,-1.76,-1.7598,-1.7571,-1.7568,-1.7564,-1.7537,-1.7555,-1.7539,-1.7507,-1.7528,-1.7503,-1.7501,-1.7491,-1.7488,-1.7485,-1.7493,-1.7492,-1.7465,-1.7465,-1.7465,-1.7465,0,0,0,0,0,0,0,-1.7601,-1.7599,-1.7584,-1.757,-1.7566,-1.7553,-1.7548,-1.7552,-1.7518,-1.7526,-1.7522,-1.7518,-1.7489,-1.7485,-1.7484,-1.7491,-1.7465,-1.7465,-1.7465,-1.7465,-1.7522,-1.7524,0,0,0,0,0,0,-1.7608,-1.7601,-1.7585,-1.7583,-1.7579,-1.7553,-1.7548,-1.7547,-1.7518,-1.7512,-1.7519,-1.7516,-1.7486,-1.7484,-1.7482,-1.7514,-1.7465,-1.7465,-1.7465,-1.7521,-1.7523,-1.7524,0,0,0,0,0,0,-1.7608,-1.7607,-1.7586,-1.7591,-1.7587,-1.7555,-1.7554,-1.7547,-1.7544,-1.7513,-1.7507,-1.7522,-1.7485,-1.7482,-1.7492,-1.7512,-1.7465,-1.7465,-1.7519,-1.7521,-1.7523,-1.7579,0,0,0,0,0,0,-1.7609,-1.7607,-1.7618,-1.7591,-1.7587,-1.7597,-1.7555,-1.7548,-1.7544,-1.7539,-1.7514,-1.7508,-1.7484,-1.7493,-1.7492,-1.7511,-1.7465,-1.7517,-1.752,-1.7523,-1.7575,-1.7583,-1.7589,0,0,0,0,0,-1.761,-1.7635,-1.7619,-1.7617,-1.76,-1.7598,-1.7596,-1.7567,-1.7546,-1.7556,-1.7537,-1.7509,-1.7511,-1.7494,-1.7493,-1.7512,-1.7515,-1.7519,-1.7522,-1.7572,-1.7581,-1.7589,0,0,0,0,0,0,-1.7664,-1.763,-1.7612,-1.7629,-1.7617,-1.7589,-1.7601,-1.7578,-1.7571,-1.7566,-1.7531,-1.7526,-1.754,-1.7528,-1.751,-1.754,-1.7509,-1.7512,-1.7547,-1.7556,-1.7563,-1.7564,-1.7465,0,0,0,0,0,-1.7678,-1.7679,-1.765,-1.7668,-1.7663,-1.7634,-1.7632,-1.7611,-1.7597,-1.7591,-1.7572,-1.7559,-1.7557,-1.7556,-1.7552,-1.7574,-1.7567,-1.7587,-1.7594,-1.76,-1.7603,-1.7613,-1.7621,-1.7536,-1.7536,-1.7536,0,0,-1.7706,-1.7688,-1.7691,-1.7679,-1.7667,-1.7669,-1.7629,-1.7634,-1.7635,-1.7592,-1.7599,-1.7586,-1.7569,-1.7586,-1.7592,-1.7575,-1.7625,-1.7605,-1.761,-1.7609,-1.7618,-1.7626,-1.7633,-1.7538,-1.7538,-1.7537,0,0,-1.7758,-1.7746,-1.7759,-1.7748,-1.7731,-1.7712,-1.7715,-1.7691,-1.768,-1.7688,-1.7655,-1.7657,-1.7654,-1.7643,-1.7638,-1.7689,-1.7663,-1.7689,-1.7725,-1.7736,-1.7743,-1.7749,-1.7766,-1.7773,-1.7692,-1.7692,-1.7692,0,-1.7795,-1.7798,-1.7768,-1.7775,-1.777,-1.7732,-1.7745,-1.7737,-1.7719,-1.7717,-1.7699,-1.7695,-1.7681,-1.7694,-1.7707,-1.7704,-1.7706,-1.769,-1.7744,-1.775,-1.7755,-1.7771,-1.7777,-1.7695,-1.7695,-1.7695,-1.7695,0,-1.7844,-1.7847,-1.786,-1.7844,-1.7841,-1.7851,-1.7823,-1.7824,-1.7804,-1.7787,-1.7796,-1.7778,-1.777,-1.7772,-1.7753,-1.7783,-1.7773,-1.7751,-1.7719,-1.7766,-1.7781,-1.7787,-1.77,-1.7699,-1.7698,-1.7697,0,0,-1.7926,-1.7896,-1.7901,-1.7894,-1.7873,-1.7875,-1.7884,-1.7876,-1.7877,-1.7868,-1.7873,-1.7873,-1.7852,-1.7846,-1.7825,-1.7835,-1.7876,-1.7811,-1.781,-1.7822,-1.7907,-1.7923,-1.793,-1.786,-1.7861,-1.7862,-1.7908,0,-1.7974,-1.7986,-1.7961,-1.7979,-1.7981,-1.7947,-1.7954,-1.7943,-1.7927,-1.7927,-1.791,-1.7909,-1.7883,-1.7879,-1.7887,-1.7869,-1.7892,-1.7866,-1.7864,-1.7864,-1.7867,-1.7938,-1.7954,-1.7998,-1.7914,-1.7914,-1.7915,0,-1.8029,-1.8023,-1.8042,-1.8021,-1.8021,-1.8028,-1.8019,-1.802,-1.8006,-1.7995,-1.7989,-1.7965,-1.7972,-1.7944,-1.7953,-1.7936,-1.7934,-1.7925,-1.7926,-1.7923,-1.7891,-1.7935,-1.8012,-1.8018,-1.7924,-1.7923,-1.7923,0,-1.8086,-1.8082,-1.8093,-1.8088,-1.8064,-1.807,-1.8061,-1.8046,-1.8043,-1.8037,-1.8034,-1.8029,-1.8025,-1.8021,-1.7997,-1.7978,-1.8009,-1.7978,-1.7998,-1.7999,-1.8004,-1.8004,-1.808,-1.8007,-1.8007,-1.8007,-1.8007,0,-1.814,-1.8153,-1.8118,-1.8124,-1.8138,-1.811,-1.8124,-1.8111,-1.8098,-1.8102,-1.8072,-1.8076,-1.8044,-1.8045,-1.8026,-1.8036,-1.8035,-1.8025,-1.802,-1.8027,-1.8028,-1.8023,-1.8019,-1.8008,-1.8008,-1.8008,-1.8007,0,-1.8204,-1.8182,-1.8191,-1.8169,-1.8163,-1.8174,-1.8155,-1.816,-1.8144,-1.8148,-1.8148,-1.8122,-1.8121,-1.8097,-1.8091,-1.8079,-1.8096,-1.8086,-1.81,-1.8096,-1.8117,-1.8115,-1.8192,-1.82,-1.8124,-1.8124,-1.8125,0,-1.8239,-1.8248,-1.8227,-1.8227,-1.8219,-1.822,-1.8218,-1.8191,-1.819,-1.8176,-1.8183,-1.818,-1.8176,-1.8176,-1.8157,-1.8152,-1.814,-1.8168,-1.8139,-1.8146,-1.8139,-1.8138,-1.8138,-1.8173,-1.8174,-1.8175,-1.8175,0,-1.8303,-1.8292,-1.8289,-1.8284,-1.8282,-1.8276,-1.8268,-1.827,-1.8241,-1.8241,-1.824,-1.8237,-1.8232,-1.8229,-1.8221,-1.8211,-1.8188,-1.8185,-1.8189,-1.8195,-1.8203,-1.8197,-1.8115,-1.8183,-1.8182,-1.8181,-1.8181,-1.8181,-1.8352,-1.8358,-1.8345,-1.8343,-1.8335,-1.8329,-1.8333,-1.8318,-1.8316,-1.831,-1.8295,-1.8296,-1.8283,-1.8271,-1.8263,-1.8264,-1.825,-1.8256,-1.8258,-1.8259,-1.8263,-1.8205,-1.8263,-1.8263,-1.8262,-1.8262,-1.8262,0,-1.8413,-1.8403,-1.8402,-1.8393,-1.8392,-1.8372,-1.8363,-1.8363,-1.8365,-1.8356,-1.8353,-1.8352,-1.8349,-1.8331,-1.8326,-1.8331,-1.832,-1.833,-1.8328,-1.8326,-1.8276,-1.8272,-1.8339,-1.8339,-1.8339,-1.8339,-1.8339,-1.8339,-1.8444,-1.8454,-1.8442,-1.8447,-1.8437,-1.8438,-1.8435,-1.8429,-1.8421,-1.8422,-1.842,-1.8408,-1.8395,-1.839,-1.8387,-1.8381,-1.838,-1.8394,-1.8385,-1.8337,-1.833,-1.8323,-1.8319,-1.8394,-1.8394,-1.8434,-1.8435,-1.8435]},{"header":{"parameterUnit":"m.s-1","parameterCategory":1,"la1":30.2991,"la2":30.254,"lo1":-89.0895,"lo2":-89.0444,"dy":0.0017,"dx":0.0017,"nx":28,"ny":28,"refTime":"2024-02-09T09:00:00:Z","depth":0,"parameterNumber":3,"parameterNumberName":"V-component_of_WINDS"},"data":[0,0,0,0,0,0,0,0,0,0,0,0,0,0,0,0,0,0,0,0,0,0,0,0,0,0,0,0,0,0,0,0,0,0,0,0,0,0,0,0,0,0,0,0,0,0,0,0,0,0,0,0,0,0,0,0,0,0,1.9493,1.9493,0,1.9515,1.9516,1.9516,1.9526,1.9526,1.9526,1.9526,1.955,1.955,1.9551,0,0,0,0,0,0,0,0,0,0,0,0,0,1.9461,1.9462,1.9493,1.9493,1.9494,1.9515,1.9516,1.9516,1.9526,1.9526,1.9526,1.9526,1.9549,1.955,1.9551,0,0,0,0,0,0,0,0,0,0,0,0,0,1.9478,1.9462,1.9493,1.9502,1.9503,1.9515,1.9516,1.9516,1.9526,1.9526,1.9526,1.9526,1.9549,1.955,1.9551,1.9557,0,0,1.9554,1.9554,0,0,0,0,0,0,0,0,1.9477,1.948,1.95,1.9501,1.9502,1.9518,1.9513,1.953,1.9527,1.9517,1.9526,1.9526,1.9539,1.9541,1.9545,1.9558,1.9559,1.9554,1.9554,1.9555,1.9555,0,0,0,0,0,0,0,1.9476,1.9479,1.9502,1.95,1.9502,1.9505,1.9507,1.9516,1.9528,1.9518,1.9519,1.9521,1.954,1.9544,1.9546,1.956,1.9554,1.9555,1.9555,1.9556,1.9581,1.9581,0,0,0,0,0,0,1.9474,1.9478,1.9501,1.9503,1.9489,1.9505,1.9508,1.9513,1.9528,1.953,1.9521,1.9522,1.9543,1.9545,1.9547,1.9556,1.9555,1.9556,1.9556,1.9581,1.9581,1.9581,0,0,0,0,0,0,1.9473,1.9476,1.95,1.949,1.9494,1.9506,1.9511,1.9513,1.9518,1.9531,1.9533,1.9524,1.9543,1.9545,1.9555,1.9557,1.9556,1.9557,1.9581,1.9581,1.9581,1.9575,0,0,0,0,0,0,1.9472,1.9475,1.9477,1.949,1.9494,1.9508,1.9512,1.9514,1.952,1.952,1.9533,1.9535,1.9543,1.9554,1.9556,1.9559,1.9558,1.9581,1.9581,1.9581,1.9575,1.9575,1.9575,0,0,0,0,0,1.9471,1.9474,1.9477,1.948,1.9497,1.9508,1.951,1.9519,1.952,1.9522,1.9531,1.9535,1.9557,1.9554,1.9557,1.956,1.9581,1.9581,1.9581,1.9575,1.9575,1.9575,0,0,0,0,0,0,1.9461,1.9476,1.948,1.9487,1.9496,1.951,1.9513,1.9518,1.9527,1.9527,1.9537,1.954,1.9549,1.9556,1.9553,1.9568,1.9569,1.957,1.9564,1.9564,1.9563,1.9562,1.9559,0,0,0,0,0,1.9459,1.9466,1.948,1.9485,1.949,1.9501,1.9506,1.9511,1.9521,1.9525,1.9534,1.9543,1.9553,1.9558,1.9567,1.9576,1.958,1.958,1.9579,1.9579,1.958,1.9587,1.9588,1.9582,1.9582,1.9582,0,0,1.9457,1.9466,1.947,1.9484,1.9491,1.9499,1.9504,1.9511,1.9518,1.9526,1.9536,1.9543,1.9555,1.9564,1.9569,1.957,1.9583,1.958,1.9579,1.958,1.9587,1.9588,1.9588,1.9582,1.9582,1.9582,0,0,1.9456,1.9463,1.947,1.9477,1.9489,1.9497,1.9498,1.9511,1.9517,1.9527,1.9534,1.9542,1.9557,1.9565,1.9571,1.9576,1.9581,1.9579,1.9578,1.9585,1.9585,1.9586,1.9589,1.959,1.9579,1.9579,1.9579,0,1.9451,1.9463,1.9472,1.948,1.9487,1.9495,1.9502,1.9509,1.9524,1.9528,1.9529,1.9549,1.9557,1.957,1.9572,1.9576,1.9579,1.9577,1.9584,1.9585,1.9586,1.9589,1.959,1.9579,1.9579,1.9579,1.9579,0,1.9458,1.9466,1.947,1.9484,1.949,1.9498,1.9509,1.9515,1.9521,1.9528,1.954,1.955,1.9562,1.9565,1.957,1.9579,1.958,1.9582,1.9584,1.9586,1.9589,1.959,1.9579,1.9579,1.9579,1.9579,0,0,1.945,1.947,1.9472,1.9479,1.9493,1.95,1.9509,1.9521,1.9526,1.9536,1.9544,1.9558,1.9561,1.9568,1.9574,1.958,1.9585,1.9582,1.9583,1.9584,1.9598,1.9596,1.9597,1.9589,1.9589,1.9589,1.9597,0,1.9453,1.9468,1.9477,1.9489,1.9498,1.9507,1.9515,1.9525,1.9533,1.9542,1.955,1.956,1.9563,1.9568,1.9574,1.9583,1.9588,1.9583,1.9597,1.9598,1.9595,1.9599,1.9597,1.9604,1.9598,1.9598,1.9598,0,1.9457,1.9467,1.948,1.9495,1.9499,1.9506,1.9519,1.9527,1.9539,1.9545,1.9554,1.956,1.9571,1.9571,1.9587,1.9583,1.959,1.9596,1.9596,1.9598,1.9599,1.9602,1.9606,1.9607,1.96,1.96,1.96,0,1.9452,1.9469,1.9479,1.9485,1.9503,1.9507,1.9515,1.9527,1.9535,1.9546,1.9551,1.9563,1.957,1.958,1.9591,1.959,1.9606,1.9607,1.9611,1.9611,1.9615,1.9614,1.9621,1.9617,1.9617,1.9617,1.9617,0,1.9454,1.9462,1.9478,1.9484,1.9494,1.9505,1.9514,1.9523,1.9534,1.9543,1.9551,1.956,1.9573,1.9583,1.9591,1.9604,1.9607,1.9612,1.9615,1.9612,1.9611,1.9617,1.9617,1.9618,1.9618,1.9618,1.9617,0,1.945,1.9461,1.9473,1.9489,1.9493,1.95,1.9514,1.9521,1.953,1.9541,1.9545,1.9559,1.9572,1.9583,1.96,1.9606,1.9619,1.9621,1.9615,1.9616,1.9621,1.9621,1.9632,1.9634,1.9628,1.9628,1.9628,0,1.945,1.9457,1.9474,1.9481,1.9488,1.9499,1.9507,1.9518,1.9526,1.9542,1.9547,1.9561,1.9572,1.9593,1.9605,1.9619,1.9622,1.9625,1.9624,1.9622,1.9623,1.9623,1.9625,1.9625,1.9625,1.9625,1.9625,0,1.9451,1.9457,1.9467,1.948,1.949,1.9501,1.9512,1.9517,1.9531,1.954,1.9553,1.9562,1.958,1.9594,1.9609,1.9618,1.9624,1.9625,1.9627,1.9625,1.9622,1.9625,1.9616,1.9625,1.9625,1.9625,1.9625,1.9625,1.945,1.9457,1.9471,1.9483,1.9493,1.9503,1.9511,1.9522,1.9533,1.9549,1.9555,1.9569,1.9583,1.9605,1.9613,1.9625,1.9626,1.9629,1.963,1.9631,1.9631,1.9619,1.9628,1.9628,1.9628,1.9628,1.9628,0,1.9452,1.9462,1.9473,1.9489,1.9499,1.9504,1.9517,1.9525,1.9538,1.955,1.9562,1.9578,1.9592,1.9606,1.9621,1.9628,1.9632,1.9632,1.9632,1.9634,1.9628,1.9626,1.9629,1.9629,1.9629,1.9629,1.9629,1.9629,1.9454,1.9467,1.9474,1.9492,1.9502,1.9516,1.9523,1.9534,1.9544,1.9562,1.9574,1.9583,1.9596,1.9613,1.9627,1.963,1.9636,1.9636,1.9641,1.9635,1.9634,1.9634,1.9632,1.9637,1.9637,1.9646,1.9646,1.9646]}]]